TimeCST,TemperatureF,Dew PointF,Humidity,Sea Level PressureIn,VisibilityMPH,Wind Direction,Wind SpeedMPH,Gust SpeedMPH,PrecipitationIn,Events,Conditions,WindDirDegrees,DateUTC
12:55 AM,3.9,-2.9,73,30.47,10.0,NW,11.5,-,N/A,,Clear,320,2008-01-01 06:55:00
1:55 AM,3.9,-2.9,73,30.49,10.0,NW,12.7,-,N/A,,Mostly Cloudy,310,2008-01-01 07:55:00
2:55 AM,3.9,-4.0,70,30.52,10.0,NW,19.6,28.8,N/A,,Scattered Clouds,310,2008-01-01 08:55:00
3:35 AM,3.2,-4.0,72,30.43,10.0,NW,17.3,25.3,N/A,,Overcast,310,2008-01-01 09:35:00
3:55 AM,3.0,-4.0,73,30.55,10.0,NW,17.3,23.0,N/A,,Overcast,320,2008-01-01 09:55:00
4:55 AM,1.9,-5.1,72,30.57,10.0,NW,13.8,24.2,N/A,,Mostly Cloudy,320,2008-01-01 10:55:00
5:11 AM,1.4,-5.8,72,30.45,10.0,NW,15.0,-,N/A,,Scattered Clouds,320,2008-01-01 11:11:00
5:55 AM,1.0,-5.1,75,30.59,10.0,NW,13.8,-,N/A,,Clear,310,2008-01-01 11:55:00
6:55 AM,1.0,-6.0,72,30.61,10.0,NW,15.0,-,N/A,,Clear,320,2008-01-01 12:55:00
7:55 AM,1.0,-6.0,72,30.63,10.0,NW,16.1,-,N/A,,Clear,320,2008-01-01 13:55:00
8:55 AM,1.0,-5.1,75,30.66,10.0,NW,15.0,-,N/A,,Clear,320,2008-01-01 14:55:00
9:55 AM,3.0,-4.0,73,30.68,10.0,NW,11.5,-,N/A,,Clear,320,2008-01-01 15:55:00
10:53 AM,6.8,-2.2,67,30.58,10.0,NW,13.8,-,N/A,,Mostly Cloudy,320,2008-01-01 16:53:00
10:55 AM,6.1,-2.0,69,30.72,10.0,NW,15.0,-,N/A,,Mostly Cloudy,320,2008-01-01 16:55:00
11:34 AM,8.6,-2.2,62,30.57,10.0,NW,18.4,-,N/A,,Mostly Cloudy,320,2008-01-01 17:34:00
11:55 AM,9.0,-0.9,64,30.71,10.0,NW,17.3,-,N/A,,Scattered Clouds,310,2008-01-01 17:55:00
12:55 PM,10.0,-0.0,64,30.71,10.0,NW,13.8,-,N/A,,Clear,310,2008-01-01 18:55:00
1:55 PM,12.9,1.9,62,30.70,10.0,NW,12.7,-,N/A,,Clear,310,2008-01-01 19:55:00
2:55 PM,15.1,3.0,59,30.69,10.0,NW,19.6,25.3,N/A,,Clear,320,2008-01-01 20:55:00
3:55 PM,16.0,3.0,57,30.71,10.0,NNW,15.0,-,N/A,,Clear,330,2008-01-01 21:55:00
4:55 PM,14.0,3.0,62,30.74,10.0,NNW,6.9,-,N/A,,Clear,330,2008-01-01 22:55:00
5:55 PM,8.1,1.0,73,30.75,10.0,NNW,5.8,-,N/A,,Clear,340,2008-01-01 23:55:00
6:55 PM,3.0,-0.9,84,30.75,10.0,Calm,Calm,-,N/A,,Clear,0,2008-01-02 00:55:00
7:55 PM,1.0,-4.0,79,30.76,10.0,Calm,Calm,-,N/A,,Clear,0,2008-01-02 01:55:00
8:55 PM,-0.0,-4.0,83,30.77,10.0,Calm,Calm,-,N/A,,Clear,0,2008-01-02 02:55:00
9:55 PM,1.9,-2.0,83,30.76,10.0,Calm,Calm,-,N/A,,Clear,0,2008-01-02 03:55:00
10:55 PM,3.9,-2.0,76,30.75,10.0,NW,3.5,-,N/A,,Clear,310,2008-01-02 04:55:00
11:55 PM,1.0,-4.0,79,30.76,10.0,SE,3.5,-,N/A,,Clear,130,2008-01-02 05:55:00